Temp_Advection
nan nan nan nan nan nan nan nan nan nan nan nan nan nan nan nan nan nan nan nan nan nan nan nan nan nan nan nan nan nan nan nan nan nan nan nan nan nan nan nan nan nan nan nan
nan -0 -0 0 0 0 0 -0 -0 -0 -0 -0 -0 -0 -1 0 0 -0 0 0 -0 -0 -0 -0 0 0 0 0 0 -0 -0 -0 0 -0 -0 -0 -1 -1 -1 -1 -1 -1 -1 nan
nan -0 -0 -0 0 -0 -0 -0 -0 -0 -0 -0 0 -0 -0 0 1 2 1 0 0 0 -0 0 0 0 0 0 0 0 -0 -0 -0 -0 -0 -0 -0 -1 -1 -1 -1 -1 -1 nan
nan -0 -0 -0 -0 -0 0 -0 -0 -0 -0 0 0 -0 0 0 0 0 2 1 1 1 0 0 0 0 0 0 0 0 0 -0 -0 -0 -0 -0 -0 -1 -1 -0 -0 -0 -1 nan
nan -0 -0 0 -0 -0 -0 -0 -0 -0 0 -0 -0 -0 -0 -0 -0 0 0 1 1 1 1 0 0 0 0 0 0 0 0 0 0 0 0 -0 -0 -0 -1 -1 -0 0 0 nan
nan -0 -0 -0 0 -0 -0 -0 -0 -0 0 -0 -0 0 0 0 0 -0 -0 0 1 0 0 0 0 0 0 0 0 0 0 0 0 -0 0 -0 -0 -1 -1 -1 -1 -1 -0 nan
nan -0 -0 -0 0 0 0 -0 -0 -0 -0 -0 -0 0 0 0 -0 -0 -0 0 0 0 0 0 0 0 0 0 0 0 0 0 0 -0 0 0 -0 -0 -1 -1 -1 -1 -1 nan
nan 0 -0 -0 0 0 0 -0 -0 -0 0 -0 -0 -0 -0 -0 0 1 0 0 0 0 0 0 0 0 0 0 0 0 0 0 0 0 0 0 0 -0 -0 -0 -1 -1 -1 nan
nan 0 -0 -0 -0 -0 0 0 -0 -0 -0 0 -0 0 0 -0 0 0 1 1 0 0 0 0 0 0 0 0 0 0 0 0 0 0 0 0 -0 -0 -0 -1 -1 -1 -1 nan
nan -0 0 -0 -0 -0 -0 0 0 -0 -0 0 -0 -0 0 -0 -0 -0 0 -0 -0 0 0 0 0 0 0 0 0 0 0 0 0 0 0 -0 -0 -0 -0 -1 -1 -1 -0 nan
nan -0 0 -0 1 0 0 -0 0 -0 -0 -0 -0 -0 -0 0 0 -0 -0 -1 0 0 0 0 0 0 0 0 0 0 0 0 0 0 0 -0 -0 -0 -0 -0 -0 -0 -0 nan
nan -0 0 0 0 0 0 0 0 0 0 0 0 -0 -0 -0 0 0 -0 0 0 0 -0 0 0 0 0 0 0 0 0 0 0 0 0 -0 -0 -0 -0 -0 -0 -0 -0 nan
nan 0 0 0 1 0 -0 0 0 0 -0 -0 -0 0 0 0 0 0 0 -0 0 0 0 0 0 0 0 0 0 0 0 0 0 0 0 -0 -0 -0 -0 -0 -0 0 0 nan
nan 0 -0 -0 0 -0 -0 -1 -0 -0 -0 -0 -0 0 0 0 0 -0 -0 0 0 1 -0 -0 0 0 0 0 0 0 0 0 0 0 0 -0 -0 -0 -0 -0 0 0 0 nan
nan 0 -0 -0 -0 -0 0 2 -1 -1 -1 -0 -0 -0 -0 0 0 -1 -1 0 0 0 -0 -0 0 0 0 0 0 0 0 0 0 0 0 0 -0 -0 -0 -0 0 0 0 nan
nan 0 -0 -0 -1 0 -0 -0 1 0 1 -0 -0 -1 -1 -1 -0 -0 -0 -0 0 0 0 -0 0 0 0 0 0 0 0 0 -0 0 0 0 -0 -0 -0 -0 -0 0 0 nan
nan -0 0 -0 -1 -1 -0 -0 -0 1 -0 -1 -0 -0 0 -0 -0 -0 -0 -0 -0 -0 0 0 0 0 0 0 0 0 0 0 0 0 0 0 -0 -0 -0 -0 -1 -0 -1 nan
nan -0 0 0 -0 -0 0 -1 -1 -1 0 0 0 -0 -0 -0 0 -0 0 -0 -0 -0 -0 0 0 0 0 0 0 0 0 0 -0 0 0 0 -0 -0 -0 -0 -0 -0 -1 nan
nan 0 -0 -0 -0 -0 -1 -1 -0 -0 -0 -1 -0 -0 -0 -0 -0 -0 0 0 -0 -0 -0 -0 -0 0 0 0 0 0 0 0 -0 -0 0 0 -0 -0 -0 -0 -0 -0 -0 nan
nan -0 0 -0 -0 -0 -0 -0 0 0 0 -0 -0 -0 -0 -0 -0 0 -0 -0 -0 0 0 -0 -0 0 0 0 0 0 0 0 -0 -0 0 0 0 -0 -0 -0 -0 -1 -0 nan
nan -0 -0 -0 -0 -0 0 -0 -1 -0 -0 -1 -0 0 0 0 -0 -0 -0 -0 -0 -0 0 0 0 -0 -0 1 0 0 0 0 0 -0 -0 1 0 -0 -0 -0 -0 -0 -0 nan
nan -0 -0 -0 0 -0 -0 -0 -0 -0 -1 -1 -2 -0 0 0 -0 -0 0 -0 -0 -0 -0 0 1 -0 -0 0 0 0 0 0 0 -0 -0 -0 0 0 -0 -0 -0 -0 -1 nan
nan -0 0 0 -1 -1 -1 0 0 0 -0 -1 -1 -0 0 -1 -1 -0 0 -0 -0 -0 0 0 0 -0 -0 0 0 0 0 0 0 0 -0 -0 -0 0 -0 0 -0 -0 -1 nan
nan -0 0 -0 -0 -1 -1 -0 0 -0 -0 -0 -1 -1 -0 -0 -1 -0 -0 0 0 0 0 0 1 -0 -0 0 -0 0 0 -0 0 0 0 -0 -0 -0 -0 -0 -0 -0 -0 nan
nan 0 0 -0 -0 -1 -0 -0 -0 -0 -0 -0 -0 0 -0 -0 -1 -1 -0 0 0 0 0 0 0 0 0 -0 -0 0 0 0 0 0 0 -0 -0 -0 -0 -0 -0 -0 -0 nan
nan nan nan nan nan nan nan nan nan nan nan nan nan nan nan nan nan nan nan nan nan nan nan nan nan nan nan nan nan nan nan nan nan nan nan nan nan nan nan nan nan nan nan nan
Wind_Speed
3 3 1 6 7 2 3 3 3 5 3 2 9 11 9 20 21 19 20 19 21 18 16 17 14 8 6 6 9 12 16 18 21 21 20 20 20 19 17 17 18 18 17 18
2 1 5 4 4 3 4 4 5 3 4 0 5 12 11 8 16 27 27 24 20 19 20 17 12 8 7 8 10 13 17 19 21 22 21 20 21 20 21 20 20 20 22 22
3 4 3 3 0 3 2 2 4 3 6 10 7 9 8 8 12 26 28 25 18 23 18 13 13 11 11 10 11 14 17 19 21 22 22 21 21 21 21 21 22 24 24 23
4 3 3 3 3 4 4 4 2 5 3 3 1 5 4 4 2 3 17 26 20 18 17 12 12 13 11 10 12 14 17 19 21 22 22 21 22 24 23 25 28 28 27 27
2 1 1 2 3 4 3 2 2 2 3 3 5 2 6 5 7 8 7 18 22 16 15 14 14 12 10 11 13 14 17 19 21 23 23 22 23 24 26 28 31 31 30 30
4 3 4 3 2 2 1 3 4 1 2 3 8 5 4 4 3 6 11 19 22 19 16 13 12 12 11 11 12 14 17 20 23 23 22 22 23 24 27 29 32 33 33 33
5 3 4 2 3 4 1 2 2 2 1 4 4 1 8 2 1 10 12 22 21 17 14 11 10 11 13 13 14 15 17 20 22 23 21 20 21 23 27 30 33 34 36 36
2 4 1 3 2 1 3 2 2 4 3 2 2 6 5 2 9 19 22 20 15 13 11 11 10 11 13 14 15 16 18 20 22 23 20 20 20 23 27 30 32 35 37 39
3 2 2 3 2 2 3 2 1 4 1 1 4 6 3 3 2 5 14 16 13 10 9 8 9 11 13 15 14 15 18 20 22 21 20 19 20 23 27 30 32 35 38 41
1 4 2 4 3 5 2 0 1 2 3 4 3 3 3 5 7 5 4 13 11 7 8 9 10 12 13 14 13 14 17 20 21 20 19 20 21 24 27 30 33 35 38 40
4 3 1 4 6 6 2 1 1 2 2 2 3 4 2 5 10 10 8 16 13 4 8 12 11 12 14 13 13 14 16 19 20 20 19 20 22 24 27 30 32 35 39 40
2 1 3 4 2 1 1 0 4 2 2 1 2 6 4 4 5 8 9 13 13 9 10 10 11 13 14 13 13 13 16 19 20 19 18 19 22 24 27 29 31 34 37 37
2 2 4 3 4 2 2 4 2 3 1 5 2 4 3 2 4 2 3 7 13 16 17 16 13 13 13 13 12 13 15 17 18 19 18 20 21 23 26 28 30 31 32 32
0 4 7 9 6 2 4 5 5 5 3 4 10 8 3 2 3 2 5 10 18 18 18 19 14 13 12 12 12 12 13 16 18 18 17 20 21 23 26 28 29 28 27 28
3 5 10 14 15 14 15 14 10 12 15 8 3 9 10 4 3 11 17 14 14 17 15 12 13 13 13 12 12 11 12 14 16 17 17 18 20 22 24 26 26 25 25 25
4 5 7 7 12 15 20 16 20 17 14 14 13 22 16 19 4 7 10 9 13 13 13 15 15 14 14 12 11 10 10 12 14 16 17 18 19 20 23 24 24 24 24 23
3 2 2 4 7 12 6 6 5 8 7 8 7 11 5 2 4 7 11 12 11 12 13 15 15 14 14 13 11 10 9 11 12 16 17 17 19 19 22 24 23 24 24 25
5 4 2 3 4 3 3 15 9 14 9 6 6 3 2 3 10 15 11 10 14 16 16 13 11 11 12 13 11 10 9 10 11 15 19 17 17 18 21 23 23 24 27 26
0 2 3 2 3 10 10 11 9 9 5 16 14 5 9 10 13 10 7 9 16 20 18 16 12 11 11 13 13 12 10 10 12 15 18 17 17 18 20 23 25 25 28 27
4 3 1 2 3 3 3 15 20 8 3 10 11 7 4 10 3 1 14 22 20 23 21 14 15 12 12 14 15 13 9 8 10 13 16 17 16 17 18 20 25 26 27 28
6 1 3 5 3 3 12 21 25 5 6 33 21 13 12 4 10 22 22 22 21 24 20 16 15 17 15 13 16 13 9 9 10 11 13 16 14 16 16 19 23 25 26 28
4 3 3 3 3 2 21 8 8 10 33 32 31 25 24 25 26 24 23 23 25 25 19 17 14 16 15 15 16 14 10 11 9 9 11 14 14 14 15 16 21 25 29 31
2 2 2 1 6 23 23 24 20 30 32 35 28 25 19 27 29 24 26 30 27 24 19 17 11 13 14 13 15 14 10 11 8 6 9 12 12 13 15 14 19 27 32 34
2 3 2 5 6 10 32 18 27 31 35 34 30 32 29 30 28 29 32 31 29 22 20 17 14 13 12 13 12 11 12 11 8 6 7 8 9 10 12 16 16 25 31 34
3 9 5 6 9 26 8 26 31 35 33 36 28 24 27 24 27 27 29 28 24 20 20 17 15 15 14 12 13 10 13 11 7 5 5 6 7 7 7 11 17 21 24 26
3 5 6 10 19 18 24 34 30 32 32 31 30 25 18 17 21 20 20 20 18 19 18 16 14 14 12 12 14 11 10 10 7 5 3 5 5 5 5 5 7 11 16 21
Wind_Direction
152 270 330 36 45 94 294 307 326 120 88 306 232 251 237 189 197 206 206 199 191 194 191 196 221 235 254 286 306 325 331 330 331 330 328 321 317 313 309 308 308 309 307 299
260 71 52 47 45 34 351 345 302 65 98 109 289 280 271 217 201 198 203 203 200 187 181 200 222 234 253 276 301 318 324 326 329 329 325 319 319 316 315 315 314 316 314 307
23 54 19 353 235 348 147 321 339 353 323 229 288 274 216 227 206 204 207 203 207 191 185 213 220 236 256 281 297 310 318 324 327 326 323 317 314 311 310 311 308 306 303 297
68 49 338 312 67 345 267 48 15 338 359 261 181 285 248 161 174 167 181 191 194 170 179 186 211 235 257 274 290 305 315 321 324 324 320 320 317 315 314 312 310 307 306 301
69 36 337 264 43 330 53 332 353 35 295 6 188 264 258 121 206 199 205 182 180 187 194 199 227 245 258 275 288 301 312 318 323 325 322 319 316 314 312 310 309 309 307 303
83 82 38 42 87 27 25 246 201 157 244 255 211 198 259 187 226 148 179 183 181 188 201 210 224 247 260 276 292 303 313 320 323 324 319 317 314 313 310 310 309 309 306 302
157 103 115 358 223 164 221 244 217 201 191 239 346 210 257 221 320 165 155 160 180 192 205 220 235 248 267 287 298 305 312 317 321 320 318 312 309 308 309 310 309 307 303 300
337 300 129 320 77 81 93 15 312 291 336 345 81 234 261 40 52 135 158 164 176 197 218 229 242 253 266 280 292 301 310 317 321 319 314 308 308 309 307 308 307 305 302 299
354 259 137 45 30 6 151 200 55 296 142 27 232 276 42 98 60 104 147 167 188 206 222 241 256 266 273 282 292 300 309 318 322 318 311 309 308 308 308 308 305 303 302 302
250 303 201 125 115 13 18 203 141 224 274 266 279 273 274 198 191 199 195 203 202 217 250 259 265 269 273 281 289 300 312 320 322 317 313 312 310 309 309 308 307 305 304 300
158 126 206 128 199 173 114 218 206 313 231 277 307 264 317 212 186 185 202 206 195 212 278 268 263 269 274 282 291 304 314 321 324 318 313 312 310 311 311 311 311 308 304 301
157 192 268 221 296 19 45 72 177 217 214 221 150 278 346 25 62 136 166 195 198 241 323 299 270 269 277 284 293 307 318 323 324 319 317 315 312 315 315 316 313 312 306 302
157 250 306 317 5 352 223 206 236 76 5 206 208 265 314 65 44 76 180 222 243 271 294 312 281 272 278 282 291 305 317 322 324 323 319 315 318 319 321 319 319 316 314 311
116 241 224 251 268 119 183 189 192 157 190 227 226 268 285 255 142 208 267 291 288 275 289 295 275 271 274 277 286 300 313 323 328 328 321 317 324 326 326 325 325 325 327 316
217 243 239 261 280 288 284 277 189 205 217 232 267 285 279 300 328 305 296 314 306 284 282 285 282 271 269 271 279 292 310 323 333 331 324 322 328 327 328 329 332 332 338 321
221 261 306 299 286 267 266 267 257 224 224 254 271 279 279 283 262 281 316 312 298 297 289 297 290 269 267 270 277 284 305 321 336 336 330 328 329 332 333 334 338 345 347 335
250 242 250 258 321 330 318 270 296 266 194 179 197 243 258 341 311 325 322 308 302 310 298 288 277 268 267 271 276 280 298 316 335 341 337 333 332 336 339 341 345 351 356 346
259 293 260 297 313 237 99 19 11 347 17 327 254 164 295 347 330 313 300 292 316 327 318 303 278 268 265 268 276 275 289 306 330 347 345 338 336 340 342 346 351 351 1 356
269 154 290 276 284 297 14 17 350 338 337 8 355 62 47 12 323 41 40 330 320 317 314 300 282 275 264 262 275 282 290 312 329 351 342 341 343 345 345 352 355 358 356 359
107 73 86 291 261 304 21 347 324 298 218 15 13 1 348 322 290 210 326 324 310 306 305 297 290 282 264 250 261 271 276 290 303 335 343 342 344 351 349 360 360 1 1 360
313 116 210 266 275 276 2 355 350 1 336 325 318 298 300 279 276 292 302 314 305 308 300 288 271 272 277 258 253 264 265 277 297 323 344 345 349 351 356 5 7 5 5 9
12 311 358 323 281 304 356 349 1 302 304 306 296 284 291 299 299 290 295 307 310 309 303 303 267 265 270 259 249 255 255 269 289 317 342 354 349 357 0 7 9 13 13 17
16 147 219 105 286 300 334 322 329 325 310 314 289 279 285 300 303 289 297 308 305 306 301 303 273 264 263 255 253 250 245 266 283 314 340 351 359 0 10 6 17 22 21 20
334 22 249 351 314 328 319 331 326 329 321 318 307 296 291 293 291 285 293 302 303 300 301 299 277 246 252 251 263 254 233 256 268 297 336 353 3 8 13 20 25 32 25 21
297 305 289 254 297 319 316 324 328 330 336 337 322 298 290 286 283 288 294 292 297 300 303 298 280 255 234 237 255 254 241 250 246 278 327 355 4 25 31 13 20 25 33 27
330 313 321 311 310 309 312 325 329 328 330 335 343 339 320 302 300 294 289 291 300 305 302 296 282 258 222 234 245 243 247 244 235 245 296 351 17 38 48 30 25 36 26 24
Height
1458 1461 1459 1467 1465 1468 1469 1466 1461 1461 1469 1469 1463 1460 1456 1457 1460 1463 1464 1466 1469 1472 1475 1476 1478 1479 1480 1480 1481 1479 1479 1479 1477 1477 1475 1473 1472 1473 1473 1473 1474 1475 1476 1477
1462 1463 1469 1468 1467 1467 1467 1465 1461 1466 1468 1472 1464 1461 1454 1450 1448 1451 1456 1461 1465 1469 1470 1473 1474 1476 1477 1478 1477 1476 1477 1475 1473 1472 1471 1469 1467 1467 1467 1467 1469 1471 1471 1472
1465 1473 1472 1470 1468 1469 1467 1471 1471 1471 1470 1464 1467 1454 1442 1437 1442 1446 1450 1455 1460 1463 1466 1468 1472 1474 1474 1474 1473 1474 1473 1471 1469 1468 1467 1465 1462 1462 1464 1464 1465 1468 1468 1468
1470 1473 1473 1471 1473 1476 1468 1477 1477 1476 1476 1467 1470 1459 1433 1440 1444 1445 1446 1450 1456 1458 1463 1467 1469 1470 1470 1471 1471 1471 1470 1468 1467 1465 1463 1459 1458 1458 1459 1459 1461 1461 1461 1461
1474 1472 1472 1472 1480 1480 1479 1480 1478 1480 1481 1482 1467 1472 1436 1438 1440 1442 1444 1447 1451 1457 1462 1466 1466 1467 1467 1468 1468 1467 1466 1465 1463 1460 1456 1454 1453 1454 1453 1454 1454 1454 1453 1453
1474 1476 1478 1480 1481 1482 1482 1481 1479 1480 1480 1487 1455 1453 1435 1437 1431 1435 1441 1446 1451 1456 1460 1462 1463 1464 1465 1465 1464 1463 1462 1460 1457 1455 1453 1450 1450 1450 1450 1450 1448 1446 1445 1445
1474 1476 1480 1481 1480 1482 1482 1480 1468 1476 1492 1463 1466 1465 1443 1432 1429 1431 1437 1444 1450 1454 1457 1459 1460 1461 1460 1460 1460 1460 1459 1458 1454 1451 1449 1447 1448 1447 1446 1444 1441 1439 1437 1437
1473 1475 1483 1483 1484 1483 1480 1485 1472 1459 1454 1459 1471 1475 1435 1436 1433 1433 1439 1444 1449 1452 1454 1456 1457 1457 1457 1457 1457 1457 1456 1453 1450 1447 1445 1444 1443 1442 1441 1439 1436 1432 1429 1428
1477 1469 1484 1483 1485 1486 1488 1486 1490 1479 1478 1481 1452 1442 1440 1440 1440 1440 1441 1443 1446 1449 1450 1452 1453 1454 1454 1454 1454 1453 1452 1448 1445 1442 1441 1440 1439 1438 1436 1433 1430 1426 1422 1418
1476 1485 1477 1486 1487 1490 1489 1491 1485 1483 1461 1461 1450 1439 1424 1438 1439 1441 1443 1443 1445 1447 1448 1449 1450 1451 1451 1451 1450 1449 1447 1443 1441 1439 1437 1435 1434 1433 1431 1427 1422 1418 1414 1409
1474 1485 1484 1484 1490 1488 1495 1493 1491 1490 1480 1459 1469 1442 1431 1427 1430 1435 1438 1440 1444 1446 1447 1447 1446 1446 1447 1446 1445 1444 1442 1440 1437 1435 1433 1431 1430 1428 1424 1419 1415 1410 1404 1399
1470 1478 1483 1477 1487 1484 1485 1479 1479 1470 1475 1486 1498 1462 1436 1433 1432 1433 1438 1441 1442 1442 1443 1442 1442 1441 1441 1441 1440 1440 1438 1436 1434 1431 1429 1427 1425 1422 1417 1413 1408 1402 1395 1388
1470 1477 1480 1476 1489 1484 1487 1485 1484 1489 1482 1472 1466 1451 1437 1435 1435 1436 1437 1438 1439 1439 1438 1438 1437 1437 1436 1437 1437 1436 1435 1433 1431 1428 1425 1423 1420 1416 1411 1407 1400 1394 1386 1378
1469 1469 1466 1465 1458 1462 1478 1473 1482 1485 1483 1478 1445 1444 1438 1436 1436 1435 1435 1436 1435 1434 1433 1433 1432 1432 1433 1433 1433 1433 1433 1431 1428 1424 1421 1419 1415 1410 1406 1400 1394 1387 1379 1371
1469 1472 1463 1459 1457 1454 1451 1451 1468 1474 1462 1461 1450 1447 1439 1437 1437 1434 1433 1432 1431 1430 1429 1429 1429 1429 1429 1430 1430 1430 1429 1427 1424 1421 1418 1415 1410 1406 1401 1395 1389 1381 1372 1366
1463 1467 1459 1464 1455 1452 1447 1445 1438 1446 1456 1454 1453 1445 1435 1433 1432 1432 1431 1430 1429 1428 1428 1427 1426 1426 1426 1427 1427 1426 1426 1424 1422 1418 1414 1410 1406 1402 1397 1391 1384 1375 1368 1361
1468 1467 1464 1464 1449 1448 1453 1437 1433 1431 1436 1441 1452 1434 1433 1433 1431 1430 1429 1429 1428 1426 1425 1424 1423 1422 1422 1423 1423 1423 1422 1421 1419 1415 1411 1408 1403 1399 1394 1388 1380 1373 1365 1358
1465 1466 1463 1465 1462 1472 1448 1442 1437 1434 1429 1429 1427 1429 1432 1432 1431 1429 1428 1427 1427 1425 1423 1421 1420 1419 1419 1419 1419 1419 1419 1418 1416 1413 1409 1406 1402 1397 1391 1385 1379 1372 1364 1357
1464 1470 1468 1466 1464 1447 1443 1452 1453 1449 1441 1440 1425 1427 1433 1433 1430 1428 1428 1429 1426 1423 1422 1419 1418 1417 1416 1416 1415 1416 1415 1414 1413 1411 1408 1404 1400 1395 1389 1383 1377 1370 1362 1355
1465 1468 1474 1465 1459 1455 1460 1457 1448 1444 1441 1442 1441 1439 1437 1435 1432 1428 1426 1425 1423 1420 1418 1416 1415 1414 1414 1414 1413 1413 1413 1412 1411 1409 1407 1403 1398 1393 1388 1383 1376 1369 1362 1355
1465 1467 1475 1467 1461 1454 1459 1452 1444 1448 1447 1441 1441 1438 1435 1434 1431 1425 1424 1421 1419 1415 1412 1411 1410 1409 1410 1410 1409 1410 1410 1409 1409 1408 1405 1401 1397 1392 1388 1382 1377 1370 1362 1355
1475 1478 1473 1467 1465 1465 1457 1456 1463 1459 1446 1443 1434 1431 1428 1426 1423 1421 1419 1417 1414 1410 1407 1406 1404 1404 1406 1406 1406 1407 1407 1407 1407 1406 1403 1400 1396 1392 1387 1382 1377 1370 1361 1354
1478 1483 1489 1482 1472 1461 1460 1458 1456 1453 1443 1434 1427 1424 1423 1421 1417 1415 1413 1410 1408 1405 1403 1401 1399 1400 1401 1401 1402 1403 1404 1404 1404 1403 1401 1399 1396 1391 1388 1383 1377 1371 1363 1355
1479 1479 1479 1480 1465 1461 1457 1455 1452 1446 1438 1429 1423 1419 1417 1413 1411 1408 1406 1404 1402 1400 1398 1396 1395 1395 1396 1397 1398 1400 1400 1401 1401 1400 1400 1398 1395 1392 1388 1385 1380 1374 1369 1361
1485 1479 1478 1474 1464 1457 1452 1450 1445 1438 1431 1424 1416 1412 1409 1408 1405 1403 1400 1399 1397 1395 1393 1391 1390 1390 1391 1393 1394 1396 1396 1398 1399 1398 1397 1396 1394 1392 1389 1387 1383 1376 1373 1371
1484 1480 1474 1466 1462 1459 1451 1444 1440 1434 1428 1422 1415 1408 1404 1402 1399 1397 1395 1394 1392 1390 1388 1386 1386 1385 1386 1389 1390 1392 1393 1394 1396 1396 1396 1395 1394 1392 1389 1387 1386 1383 1379 1373